Location: Strawberry
(45.6646°N, 111.9596°W)
Time: 22:03:13
(UTC+00:00)

X-37B - Pass Details

Date: 23 August 2022
Orbit: 330 x 340 km, 45.0° (Epoch: 02 September)

Event Time Altitude Azimuth Distance (km) Brightness Sun altitude
Rises 03:36:00 0° 238° (WSW) 2,089 4.7 -12.4°
Reaches altitude 10° 03:38:03 10° 229° (SW) 1,258 3.4 -12.7°
Maximum altitude 03:40:42 37° 160° (SSE) 540 0.9 -13.1°
Enters shadow 03:41:27 30° 122° (ESE) 632 1.1 -13.2°
